Location: *
(46.1866°S, 178.5290°W)
Time: 01:42:38
(UTC+00:00)

Cosmos 2221 - Pass Details

Date: 19 May 2021
Orbit: 593 x 615 km, 82.5° (Epoch: 12 June)

Event Time Altitude Azimuth Distance (km) Brightness Sun altitude
Rises 05:48:03 0° 197° (SSW) 2,877 6.0 -13.7°
Reaches altitude 10° 05:50:23 10° 204° (SSW) 1,967 5.3 -14.1°
Maximum altitude 05:54:25 38° 272° (W) 928 4.1 -14.8°
Drops below altitude 10° 05:58:24 10° 340° (NNW) 1,946 5.6 -15.5°
Sets 06:00:42 0° 347° (NNW) 2,843 6.3 -15.9°
